User: anonymous   Login
Location: Oracle State Park
(32.6095°N, 110.7330°W)
Time: 16:56:52
(UTC-07:00)
Language:

AIST 2D - Orbit

View from above orbital plane
View from above orbital plane
View from above satellite
View from above satellite

Ground track
Ground track

The orbit data is extracted from the following two-line orbital elements,

1 41465U 16026B   19320.53520907  .00001575  00000-0  49917-4 0  9993
2 41465  97.1721 211.7281 0009970 307.1645 151.3238 15.34139555198622
Epoch (UTC): 16 November 2019 12:50:42
Eccentricity: 0.0009970
inclination: 97.1721°
perigee height: 456 km
apogee height: 470 km
right ascension of ascending node: 211.7281°
argument of perigee: 307.1645°
revolutions per day: 15.34139555
mean anomaly at epoch: 151.3238°
orbit number at epoch: 19862

The dashed part of the orbit path shows where the satellite is in the earth's shadow,  

DLR